When you browse on this site, cookies collect data to enhance your experience and personalize the content and advertising you see.
Visit our Privacy Policy to learn more. By continuing to use the site, you agree to this use of cookies and data.
  • In Spain
  • List of Countries
  • For 7 days
  • Water Temperature
  • Weather Map
  • Weather Widgets
  • user-avatar
    Login

    Hourly Weather Rawson

    Today, 19 October, Saturday

    Time Temperature Precipitation Wind Pressure Humidity
    00:00 +11°C° 0 mm 6 mps 763 mmHg 48%
    01:00 +11°C° 0 mm 6 mps 763 mmHg 48%
    02:00 +13°C° 0 mm 6 mps 763 mmHg 48%
    03:00 +13°C° 0 mm 6 mps 762 mmHg 46%
    04:00 +12°C° 0 mm 7 mps 762 mmHg 45%
    05:00 +12°C° 0 mm 7 mps 762 mmHg 43%
    06:00 +15°C° 0 mm 7 mps 762 mmHg 37%
    07:00 +17°C° 0 mm 7 mps 762 mmHg 31%
    08:00 +21°C° 0 mm 6 mps 761 mmHg 26%
    09:00 +23°C° 0 mm 6 mps 761 mmHg 21%
    10:00 +27°C° 0 mm 6 mps 761 mmHg 17%
    11:00 +29°C° 0 mm 6 mps 761 mmHg 13%
    12:00 +30°C° 0 mm 7 mps 760 mmHg 13%
    13:00 +32°C° 0 mm 7 mps 759 mmHg 12%
    14:00 +33°C° 0 mm 8 mps 758 mmHg 12%
    15:00 +33°C° 0 mm 9 mps 758 mmHg 13%
    16:00 +32°C° 0 mm 10 mps 757 mmHg 14%
    17:00 +32°C° 0 mm 10 mps 756 mmHg 15%
    18:00 +29°C° 0 mm 11 mps 756 mmHg 18%
    19:00 +27°C° 0 mm 11 mps 757 mmHg 22%
    20:00 +23°C° 0 mm 12 mps 757 mmHg 25%
    21:00 +23°C° 0 mm 11 mps 756 mmHg 27%
    22:00 +23°C° 0 mm 11 mps 756 mmHg 29%
    23:00 +23°C° 0 mm 11 mps 756 mmHg 31%

    Tomorrow, 20 October, Sunday

    Time Temperature Precipitation Wind Pressure Humidity
    00:00 +22°C° 0 mm 11 mps 756 mmHg 32%
    01:00 +22°C° 0 mm 11 mps 756 mmHg 34%
    02:00 +22°C° 0 mm 11 mps 756 mmHg 35%
    03:00 +22°C° 0 mm 10 mps 755 mmHg 37%
    04:00 +21°C° 0 mm 10 mps 755 mmHg 39%
    05:00 +21°C° 0 mm 9 mps 755 mmHg 40%
    06:00 +22°C° 0 mm 9 mps 755 mmHg 38%
    07:00 +24°C° 0 mm 9 mps 755 mmHg 36%
    08:00 +26°C° 0 mm 9 mps 755 mmHg 34%
    09:00 +27°C° 0 mm 8 mps 755 mmHg 31%
    10:00 +28°C° 0 mm 7 mps 755 mmHg 27%
    11:00 +29°C° 0 mm 6 mps 755 mmHg 24%
    12:00 +30°C° 0 mm 5 mps 754 mmHg 23%
    13:00 +30°C° 0 mm 4 mps 753 mmHg 22%
    14:00 +30°C° 0 mm 4 mps 753 mmHg 20%
    15:00 +30°C° 0 mm 5 mps 752 mmHg 20%
    16:00 +30°C° 0 mm 5 mps 752 mmHg 19%
    17:00 +30°C° 0 mm 6 mps 752 mmHg 19%
    18:00 +29°C° 0 mm 7 mps 752 mmHg 17%
    19:00 +27°C° 0 mm 8 mps 752 mmHg 15%
    20:00 +24°C° 0 mm 8 mps 752 mmHg 13%
    21:00 +23°C° 0 mm 9 mps 753 mmHg 15%
    22:00 +22°C° 0 mm 9 mps 753 mmHg 16%
    23:00 +21°C° 0 mm 9 mps 753 mmHg 18%

    Day after tomorrow, 21 October, Monday

    Time Temperature Precipitation Wind Pressure Humidity
    00:00 +19°C° 0 mm 10 mps 754 mmHg 25%
    01:00 +17°C° 0 mm 11 mps 754 mmHg 31%
    02:00 +15°C° 0 mm 13 mps 754 mmHg 38%
    03:00 +14°C° 0 mm 12 mps 754 mmHg 36%
    04:00 +13°C° 0 mm 11 mps 755 mmHg 35%
    05:00 +12°C° 0 mm 10 mps 755 mmHg 33%
    06:00 +12°C° 0 mm 10 mps 756 mmHg 36%
    07:00 +12°C° 0 mm 9 mps 757 mmHg 38%
    08:00 +12°C° 0 mm 9 mps 758 mmHg 41%
    09:00 +11°C° 0.6 mm 11 mps 758 mmHg 46%
    10:00 +9°C° 0.6 mm 12 mps 758 mmHg 52%
    11:00 +9°C° 0.6 mm 14 mps 759 mmHg 57%
    12:00 +10°C° 0 mm 13 mps 759 mmHg 48%
    13:00 +13°C° 0 mm 13 mps 759 mmHg 39%
    14:00 +15°C° 0 mm 13 mps 759 mmHg 30%
    15:00 +14°C° 0 mm 13 mps 759 mmHg 33%
    16:00 +13°C° 0 mm 13 mps 759 mmHg 36%
    17:00 +13°C° 0 mm 13 mps 759 mmHg 40%
    18:00 +12°C° 0 mm 12 mps 760 mmHg 45%
    19:00 +9°C° 0 mm 11 mps 761 mmHg 50%
    20:00 +8°C° 0 mm 10 mps 761 mmHg 55%
    21:00 +8°C° 0 mm 9 mps 761 mmHg 54%
    22:00 +9°C° 0 mm 8 mps 761 mmHg 52%
    23:00 +7°C° 0 mm 8 mps 761 mmHg 51%

    22 October, Tuesday

    Time Temperature Precipitation Wind Pressure Humidity
    00:00 +7°C° 0 mm 8 mps 761 mmHg 49%
    01:00 +7°C° 0 mm 8 mps 761 mmHg 47%
    02:00 +6°C° 0 mm 8 mps 761 mmHg 46%
    03:00 +6°C° 0 mm 8 mps 761 mmHg 46%
    04:00 +6°C° 0 mm 8 mps 761 mmHg 46%
    05:00 +5°C° 0 mm 8 mps 761 mmHg 46%
    06:00 +7°C° 0 mm 8 mps 761 mmHg 40%
    07:00 +10°C° 0 mm 9 mps 761 mmHg 34%
    08:00 +12°C° 0 mm 10 mps 761 mmHg 28%
    09:00 +13°C° 0 mm 10 mps 761 mmHg 28%
    10:00 +14°C° 0 mm 10 mps 761 mmHg 28%
    11:00 +16°C° 0 mm 10 mps 760 mmHg 28%
    12:00 +16°C° 0 mm 10 mps 760 mmHg 30%
    13:00 +14°C° 0 mm 10 mps 760 mmHg 32%
    14:00 +14°C° 0 mm 10 mps 760 mmHg 34%
    15:00 +13°C° 0 mm 10 mps 760 mmHg 39%
    16:00 +12°C° 0 mm 10 mps 759 mmHg 44%
    17:00 +11°C° 0 mm 10 mps 759 mmHg 49%
    18:00 +10°C° 0 mm 9 mps 759 mmHg 54%
    19:00 +9°C° 0 mm 8 mps 760 mmHg 60%
    20:00 +8°C° 0 mm 7 mps 760 mmHg 66%
    21:00 +8°C° 0 mm 6 mps 760 mmHg 71%
    22:00 +8°C° 0 mm 5 mps 760 mmHg 77%
    23:00 +7°C° 0 mm 4 mps 760 mmHg 82%

    23 October, Wednesday

    Time Temperature Precipitation Wind Pressure Humidity
    00:00 +8°C° 0 mm 3 mps 760 mmHg 85%
    01:00 +7°C° 0 mm 3 mps 760 mmHg 88%
    02:00 +7°C° 0 mm 2 mps 760 mmHg 90%
    03:00 +7°C° 0 mm 2 mps 760 mmHg 86%
    04:00 +7°C° 0 mm 3 mps 760 mmHg 82%
    05:00 +7°C° 0 mm 3 mps 760 mmHg 78%
    06:00 +9°C° 0 mm 3 mps 761 mmHg 66%
    07:00 +12°C° 0 mm 2 mps 761 mmHg 54%
    08:00 +14°C° 0 mm 2 mps 761 mmHg 43%
    09:00 +15°C° 0 mm 2 mps 761 mmHg 39%
    10:00 +16°C° 0 mm 2 mps 761 mmHg 35%
    11:00 +18°C° 0 mm 2 mps 761 mmHg 32%
    12:00 +18°C° 0 mm 3 mps 760 mmHg 31%
    13:00 +19°C° 0 mm 4 mps 760 mmHg 30%
    14:00 +19°C° 0 mm 4 mps 760 mmHg 29%
    15:00 +19°C° 0 mm 5 mps 760 mmHg 31%
    16:00 +19°C° 0 mm 6 mps 759 mmHg 32%
    17:00 +17°C° 0 mm 6 mps 759 mmHg 34%
    18:00 +16°C° 0 mm 6 mps 759 mmHg 37%
    19:00 +15°C° 0 mm 5 mps 759 mmHg 40%
    20:00 +14°C° 0 mm 5 mps 759 mmHg 44%
    21:00 +13°C° 0 mm 5 mps 759 mmHg 49%
    22:00 +13°C° 0 mm 5 mps 759 mmHg 54%
    23:00 +12°C° 0 mm 5 mps 759 mmHg 58%

    24 October, Thursday

    Time Temperature Precipitation Wind Pressure Humidity
    00:00 +11°C° 0 mm 6 mps 759 mmHg 60%
    01:00 +11°C° 0 mm 6 mps 759 mmHg 62%
    02:00 +10°C° 0 mm 6 mps 758 mmHg 64%
    03:00 +11°C° 0 mm 6 mps 758 mmHg 63%
    04:00 +11°C° 0 mm 7 mps 758 mmHg 63%
    05:00 +11°C° 0 mm 7 mps 758 mmHg 62%
    06:00 +14°C° 0 mm 7 mps 758 mmHg 53%
    07:00 +15°C° 0 mm 7 mps 757 mmHg 45%
    08:00 +17°C° 0 mm 7 mps 757 mmHg 36%
    09:00 +21°C° 0 mm 5 mps 757 mmHg 30%
    10:00 +23°C° 0 mm 4 mps 756 mmHg 24%
    11:00 +27°C° 0 mm 3 mps 756 mmHg 18%
    12:00 +27°C° 0 mm 3 mps 755 mmHg 18%
    13:00 +28°C° 0 mm 3 mps 754 mmHg 18%
    14:00 +28°C° 0 mm 3 mps 754 mmHg 18%
    15:00 +28°C° 0 mm 4 mps 753 mmHg 19%
    16:00 +28°C° 0 mm 5 mps 752 mmHg 20%
    17:00 +28°C° 0 mm 5 mps 752 mmHg 21%
    18:00 +26°C° 0.1 mm 5 mps 752 mmHg 29%
    19:00 +23°C° 0.1 mm 4 mps 752 mmHg 38%
    20:00 +21°C° 0.1 mm 4 mps 752 mmHg 47%
    21:00 +20°C° 0.1 mm 4 mps 752 mmHg 47%
    22:00 +20°C° 0.1 mm 5 mps 752 mmHg 46%
    23:00 +19°C° 0.1 mm 5 mps 752 mmHg 46%
    Show more